Home   Weather   Patras   Past weeks

Flag for Greece Past Weather in Patras, Greece — Yesterday and Last 2 Weeks

Now
72 °F

Clear.


Feels Like: 72 °F
Forecast: 54 / 84 °F
Wind: No wind

Location: Araxos Airport

Current Time: Sep 30, 2016 at 7:59:43 PM

Latest Report: Sep 30, 2016 at 7:20 PM


Visibility: 10 mi

Pressure: 30.09 "Hg

Humidity: 78%

Dew Point: 64 °F

Location of PatrasLocation

Past Weather in Patras — Graph

°F

Patras Temperature Yesterday

Maximum temperature yesterday: 79 °F (at 12:20 PM)
Minimum temperature yesterday: 59 °F (at 11:50 PM)
Average temperature yesterday: 71 °F

High & Low Weather Summary for the Past Weeks

 TemperatureHumidityPressure
High86 °F (Sep 18, 2:50 PM)100% (Sep 16, 2:50 AM)30.30 "Hg (Sep 16, 2:50 AM)
Low54 °F (Sep 30, 5:50 AM)26% (Sep 25, 5:20 PM)29.74 "Hg (Sep 20, 3:50 AM)
Average72 °F69%30.04 "Hg
* Reported Sep 15 6:20 PM — Sep 30 6:20 PM, Patras, Weather by CustomWeather, © 2016

Note: Actual official high and low records may vary slightly from our data, if they occured in-between our weather recording intervals... More about our weather records

Advertising

Patras Weather History for the Previous 24 Hours

Scroll right to see more
 ConditionsComfort  
Time TempWeatherWind HumidityBarometerVisibility
6:20 PM
Fri, Sep 30
75 °FSunny.5 mph69%30.09 "Hg10 mi
5:50 PM75 °FSunny.3 mph69%30.09 "Hg10 mi
5:20 PM77 °FPassing clouds.6 mph65%30.09 "HgN/A
4:50 PM77 °FPassing clouds.5 mph61%30.12 "HgN/A
4:20 PM79 °FSunny.6 mph54%30.12 "Hg10 mi
3:50 PM79 °FSunny.5 mph51%30.12 "Hg10 mi
3:20 PM79 °FSunny.3 mph51%30.12 "Hg10 mi
2:50 PM77 °FSunny.5 mph57%30.15 "Hg10 mi
2:20 PM79 °FSunny.6 mph51%30.15 "Hg10 mi
1:50 PM77 °FPassing clouds.5 mph51%30.15 "HgN/A
1:20 PM77 °FPassing clouds.5 mph44%30.15 "HgN/A
12:50 PM77 °FPassing clouds.3 mph51%30.15 "HgN/A
12:20 PM75 °FPassing clouds.5 mph78%30.15 "HgN/A
11:50 AM73 °FSunny.3 mph61%30.18 "Hg10 mi
11:20 AM73 °FSunny.No wind61%30.18 "Hg10 mi
10:50 AM73 °FSunny.No wind61%30.15 "Hg10 mi
10:20 AM68 °FSunny.No wind69%30.15 "Hg10 mi
9:50 AM68 °FSunny.No wind69%30.15 "Hg10 mi
9:20 AM64 °FSunny.No wind78%30.15 "Hg10 mi
8:50 AM61 °FSunny.No wind83%30.15 "Hg10 mi
8:20 AM57 °FSunny.No wind88%30.15 "Hg10 mi
7:50 AM54 °FSunny.No wind100%30.15 "Hg10 mi
7:20 AM54 °FClear.No wind94%30.15 "Hg10 mi
6:50 AM54 °FClear.No wind100%30.15 "Hg10 mi
6:20 AM54 °FClear.No wind100%30.15 "Hg10 mi
5:50 AM54 °FClear.No wind100%30.15 "Hg10 mi
4:50 AM55 °FClear.No wind94%30.15 "Hg10 mi
3:50 AM55 °FClear.No wind94%30.15 "Hg10 mi
2:50 AM55 °FClear.No wind94%30.18 "Hg10 mi
1:50 AM57 °FClear.No wind94%30.18 "Hg10 mi
12:50 AM57 °FClear.No wind94%30.18 "Hg10 mi
11:50 PM
Thu, Sep 29
59 °FClear.No wind94%30.18 "Hg10 mi
10:50 PM61 °FClear.No wind88%30.21 "Hg10 mi
9:50 PM63 °FClear.No wind83%30.21 "Hg10 mi
8:50 PM66 °FClear.No wind73%30.18 "Hg10 mi
8:20 PM68 °FClear.No wind69%30.18 "Hg10 mi
7:50 PM70 °FClear.No wind64%30.18 "Hg10 mi
7:20 PM72 °FClear.No wind61%30.18 "Hg10 mi
Weather by CustomWeather, © 2016

See weather overviewHow to use our weather pages